Regional Weather Roundup
Issued by NWS

Home | Current Version | Previous Version | Graphics & Text | Print | Product List | Glossary On
Versions: 1 2 3 4 5 6 7 8 9 10 11 12 13 14 15 16 17 18 19 20 21 22 23 24 25 26 27 28 29 30 31 32 33 34 35 36 37 38 39 40 41 42 43 44 45 46 47 48 49 50
000
ASUS45 KABQ 191710
RWRNM
WEATHER ROUNDUP FOR NEW MEXICO
NATIONAL WEATHER SERVICE ALBUQUERQUE NM
1100 AM MDT FRI SEP 19 2014

NOTE: "FAIR" MEANS FEW OR NO CLOUDS BELOW 12,000 FEET AGL WITH NO
       SIGNIFICANT WEATHER OR OBSTRUCTIONS TO VISION.

      THIS PRODUCT IS RELEASED AS TWO VERSIONS.  ONE VERSION NEAR
      THE TOP OF THE HOUR CONTAINING PRELIMINARY DATA FROM ALBUQUERQUE
      AND OTHER STATIONS.  A FINAL VERSION WITH ADDITIONAL DATA IS
      ISSUED ABOUT 10 MINUTES AFTER THE HOUR.

NMZ501-503-504-510>518-191800-
NORTHWEST PLATEAU/NORTHCENTRAL MOUNTAINS

CITY           SKY/WX    TMP DP  RH WIND       PRES   REMARKS
FARMINGTON     SUNNY     73  52  47 SE3       30.09F
LOS ALAMOS     SUNNY     67  51  57 CALM      30.23S
SANTA FE       MOSUNNY   70  52  52 VRB5      30.16F
TAOS           SUNNY     66  48  52 S5        30.21F
ANGEL FIRE     FAIR      63  50  63 NE3       30.28F

$$
NMZ402-403-502-505>509-191800-
WESTCENTRAL MOUNTAINS/SOUTHWEST MOUNTAINS

CITY           SKY/WX    TMP DP  RH WIND       PRES   REMARKS
GALLUP         SUNNY     73  49  42 CALM      30.17F
GRANTS         MOSUNNY   70  52  52 E3        30.20
SILVER CITY    MOSUNNY   72  59  64 E3        30.12S

$$
NMZ407-409-411-412-191800-
SOUTHERN DESERTS

CITY           SKY/WX    TMP DP  RH WIND       PRES   REMARKS
LORDSBURG      PTSUNNY   70  63  78 MISG      30.06S
DEMING         SUNNY     72  65  78 SW5       30.05S
LAS CRUCES     CLOUDY    71  64  77 NW3       30.05F
ALAMOGORDO     CLOUDY    68  64  88 CALM      30.03F
T OR C         SUNNY     74  60  61 NE10      30.06S

$$
NMZ519>523-191800-
CENTRAL VALLEYS/CENTRAL HIGHLANDS

CITY           SKY/WX    TMP DP  RH WIND       PRES   REMARKS
ALBUQUERQUE    PTSUNNY   74  55  51 CALM      30.11F
DOUBLE EAGLE   PTSUNNY   72  55  56 CALM      30.14F
MORIARTY ARPT  CLOUDY    68  54  61 S5        30.18F
CLINES CORNERS CLOUDY    63  54  72 E6        30.21R
BELEN          PTSUNNY   74  56  54 NW5       30.10S
SOCORRO        CLOUDY    71  61  70 N6        30.09S

$$
NMZ524>526-539-540-191800-
SOUTHCENTRAL MOUNTAINS

CITY           SKY/WX    TMP DP  RH WIND       PRES   REMARKS
RUIDOSO        CLOUDY    63  61  94 SE5       30.18S

$$
NMZ527>531-191800-
NORTHEAST HIGHLANDS/NORTHEAST PLAINS

CITY           SKY/WX    TMP DP  RH WIND       PRES   REMARKS
LAS VEGAS      MOSUNNY   66  56  70 S12       30.20S
RATON          CLOUDY    64  56  75 CALM      30.15F
CLAYTON        MOSUNNY   74  58  57 SW13      30.09S

$$
NMZ532>537-191800-
EASTCENTRAL PLAINS

CITY           SKY/WX    TMP DP  RH WIND       PRES   REMARKS
TUCUMCARI      CLOUDY    72  61  68 SW12      30.06S
CANNON AFB     PTSUNNY   71  67  89 SE9       30.08S
CLOVIS AIRPORT   N/A     68  64  88 SE6       30.11S

$$
NMZ028-029-538-191800-
SOUTHEAST PLAINS

CITY           SKY/WX    TMP DP  RH WIND       PRES   REMARKS
ROSWELL        LGT RAIN  69  66  90 SE10      30.01S
CARLSBAD       CLOUDY    71  32  23 S13       29.98S
HOBBS          CLOUDY    68  68 100 SE13      30.03S


$$



USA.gov is the U.S. government's official web portal to all federal, state and local government web resources and services.